Regional Weather Roundup
Issued by NWS

Home | Current Version | Previous Version | Text Only | Print | Product List | Glossary Off
Versions: 1 2 3 4 5 6 7 8 9 10 11 12 13 14 15 16 17 18 19 20 21 22 23 24 25 26 27 28 29 30 31 32 33 34 35 36 37 38 39 40 41 42 43 44 45 46 47 48 49 50

043
ASUS43 KFSD 290410
RWRSD

WEATHER ROUNDUP FOR SOUTH DAKOTA
NATIONAL WEATHER SERVICE SIOUX FALLS SD
1100 PM CDT FRI APR 28 2017

NOTE: "FAIR" INDICATES FEW OR NO CLOUDS BELOW 12,000 FEET WITH NO
SIGNIFICANT WEATHER AND/OR OBSTRUCTIONS TO VISIBILITY.


SDZ001>005-009-010-012>017-290500-
NORTHWEST AND NORTH CENTRAL SOUTH DAKOTA

CITY           SKY/WX    TMP DP  RH WIND       PRES   REMARKS
BUFFALO          N/A     42  27  55 SE8       30.13R
FAITH            N/A     45  16  31 CALM      30.18R
MOBRIDGE       MOCLDY    40  13  33 NE8       30.16R
$$

SDZ012>016-024>037-041>051-057-063-072>074-290500-
SOUTHWEST AND SOUTH CENTRAL SOUTH DAKOTA

CITY           SKY/WX    TMP DP  RH WIND       PRES   REMARKS
RAPID CTY ARPT PTCLDY    36  26  67 NE7       30.18R
PIERRE         PTCLDY    39  18  42 E3        30.17R
CUSTER         CLOUDY    30  23  75 NE6       30.14R WCI  24
ELLSWORTH AFB  CLOUDY    42  24  50 E5        30.18R
PHILIP         CLOUDY    39  24  55 CALM      30.18R
PINE RIDGE     CLOUDY    39  29  67 N9        30.17R
SPEARFISH      MOCLDY    36  28  75 S8        30.18R
WINNER         CLOUDY    43  24  47 NE9       30.15R
$$

SDZ004>011-016>023-039-040-290500-
NORTHEAST SOUTH DAKOTA

CITY           SKY/WX    TMP DP  RH WIND       PRES   REMARKS
ABERDEEN       CLOUDY    38  23  55 N6        30.17R
WATERTOWN      CLEAR     36  19  50 NE6       30.14R
BROOKINGS      CLOUDY    33  23  66 CALM      30.14R
SISSETON         N/A     37  25  61 W5        30.15R
$$

SDZ017-020-022-023-036>040-048>070-290500-
SOUTHEAST SOUTH DAKOTA

CITY           SKY/WX    TMP DP  RH WIND       PRES   REMARKS
SIOUX FALLS    CLOUDY    39  28  64 N7        30.12R
HURON          CLEAR     37  22  54 N8        30.16R
CHAMBERLAIN    CLOUDY    43  23  45 N6        30.16R
MITCHELL       CLOUDY    38  25  59 NE8       30.13S
YANKTON        PTCLDY    43  30  61 N8        30.12R
$$

ABBREVIATIONS USED IN REMARKS
   TC - TEMPERATURE IN CELSIUS
  WCI - WIND CHILL INDEX
   HX - HEAT INDEX
  VSB - VISIBILITY





USA.gov is the U.S. government's official web portal to all federal, state and local government web resources and services.